This is the latest recevied weather packets stored in our database for station/object KY4GW. If no packets are shown the sender has not sent any weather packets the latest 10 day(s).
| Time | Temp. | Humidity | Pressure | Rain* | Wind** | Luminosity | Snow |
|---|---|---|---|---|---|---|---|
| 1778172983 | 15° C | 42% | 1018.3 hPa | 0 mm | - | 882 W/m² | - |
| 1778172679 | 15° C | 45% | 1018.3 hPa | 0 mm | - | 877 W/m² | - |
| 1778172375 | 14.44° C | 44% | 1018.3 hPa | 0 mm | - | 873 W/m² | - |
| 1778172072 | 14.44° C | 47% | 1018.3 hPa | 0 mm | - | 871 W/m² | - |
| 1778171770 | 14.44° C | 48% | 1018.3 hPa | 0 mm | - | 869 W/m² | - |
| 1778171468 | 13.89° C | 47% | 1018.3 hPa | 0 mm | - | 861 W/m² | - |
| 1778171162 | 15° C | 44% | 1018.3 hPa | 0 mm | - | 854 W/m² | - |
| 1778170860 | 15° C | 44% | 1018.3 hPa | 0 mm | - | 849 W/m² | - |
| 1778170555 | 14.44° C | 45% | 1018.6 hPa | 0 mm | - | 845 W/m² | - |
| 1778170252 | 14.44° C | 46% | 1018.6 hPa | 0 mm | - | 826 W/m² | - |
| 1778169949 | 13.89° C | 42% | 1018.6 hPa | 0 mm | - | 816 W/m² | - |
| 1778169645 | 13.89° C | 43% | 1018.6 hPa | 0 mm | - | 807 W/m² | - |
| 1778169340 | 13.33° C | 44% | 1018.6 hPa | 0 mm | - | 800 W/m² | - |
| 1778169038 | 13.33° C | 46% | 1018.6 hPa | 0 mm | - | 795 W/m² | - |
| 1778168734 | 14.44° C | 46% | 1018.3 hPa | 0 mm | - | 789 W/m² | - |
| 1778168432 | 13.89° C | 44% | 1018.3 hPa | 0 mm | - | 786 W/m² | - |
| 1778168129 | 13.89° C | 44% | 1018.3 hPa | 0 mm | - | 784 W/m² | - |
| 1778167825 | 13.89° C | 45% | 1018.3 hPa | 0 mm | - | 777 W/m² | - |
| 1778167520 | 12.78° C | 47% | 1018.3 hPa | 0 mm | - | 764 W/m² | - |
| 1778167217 | 13.33° C | 44% | 1018.3 hPa | 0 mm | - | 753 W/m² | - |
| 1778166913 | 13.33° C | 50% | 1018.6 hPa | 0 mm | - | 733 W/m² | - |
| 1778166610 | 13.33° C | 46% | 1018.6 hPa | 0 mm | - | 726 W/m² | - |
| 1778166307 | 13.33° C | 47% | 1018.6 hPa | 0 mm | - | 713 W/m² | - |
| 1778166004 | 13.33° C | 47% | 1018.3 hPa | 0 mm | - | 698 W/m² | - |
| 1778165699 | 12.78° C | 45% | 1018.3 hPa | 0 mm | - | 682 W/m² | - |
* Rain latest hour (hover to see other rain measurements)
** Current wind speed in m/s (hover to see current wind gust speed)